Regional Weather Roundup
Issued by NWS State College, PA

Home | Current Version | Previous Version | Graphics & Text | Print | Product List | Glossary On
Versions: 1 2 3 4 5 6 7 8 9 10 11 12 13 14 15 16 17 18 19 20 21 22 23 24 25 26 27 28 29 30 31 32 33 34 35 36 37 38 39 40 41 42 43 44 45 46 47 48 49 50
000
ASUS41 KCTP 012003
RWRCTP

REGIONAL WEATHER ROUNDUP
NATIONAL WEATHER SERVICE STATE COLLEGE PA
400 PM EDT TUE SEP 01 2015

Note: "fair" indicates few or no clouds below 12,000 feet with no
significant weather and/or obstructions to visibility.

* = STATION THAT DOES NOT REPORT PRECIPITATION /E.G. RAIN...SNOW...ETC/
    THUNDER OR FOG.

PAZ002>004-007>009-013>016-020>023-029>032-012100-
WESTERN PENNSYLVANIA

CITY           SKY/WX    TMP DP  RH WIND       PRES   REMARKS
ERIE           SUNNY     83  64  52 W9        30.08F
MEADVILLE      SUNNY     84  63  49 NW7       30.11F
FRANKLIN*      SUNNY     82  64  54 NW5       30.13F
NEW CASTLE     FAIR      88  69  53 CALM      30.09F
BEAVER COUNTY  SUNNY     88  64  45 W3        30.10F
BUTLER*        MOSUNNY   86  66  51 W3        30.11F
PITTSBURGH INT MOSUNNY   88  63  43 SW6       30.09F
PITTSBURGH     MOSUNNY   86  57  37 VRB6      30.08F
INDIANA*       SUNNY     86  64  48 N7        30.12F
LATROBE        MOSUNNY   86  64  48 W7        30.10F
WASHINGTON CO* MOSUNNY   88  64  45 NW7       30.11F
$$

PAZ004>006-010>012-017>019-024>028-033>037-041-042-045-046-049>053-012100-
CENTRAL PENNSYLVANIA

CITY           SKY/WX    TMP DP  RH WIND       PRES   REMARKS
BRADFORD       MOSUNNY   81  60  48 NW6       30.13F
DUBOIS         MOSUNNY   85  61  44 NW8       30.11F
CLEARFIELD     SUNNY     85  61  44 W7        30.10F
JOHNSTOWN      MOSUNNY   83  61  47 NW8       30.14F
ALTOONA        MOSUNNY   87  61  41 NW9       30.10F
STATE COLLEGE  MOSUNNY   84  64  51 CALM      30.08F
WILLIAMSPORT   SUNNY     86  65  49 S5        30.03F
SELINSGROVE    SUNNY     87  67  51 NW3       30.04F
FT INDIANTOWN  MOSUNNY   87  65  47 VRB2      30.03F
CAPITAL CITY   SUNNY     88  62  41 W7        30.03F
HARRISBURG     MOSUNNY   88  63  43 W8        30.02F
YORK           SUNNY     88  62  41 N6        30.04F
$$

PAZ038>040-043-044-047-048-054-055-060>062-067>071-012100-
EASTERN PENNSYLVANIA

CITY           SKY/WX    TMP DP  RH WIND       PRES   REMARKS
SCRANTON       SUNNY     87  61  41 W6        30.05F
MOUNT POCONO   MOSUNNY   80  61  52 E7        30.11F
ALLENTOWN      SUNNY     88  64  44 NW3       30.03F
QUAKERTOWN*    CLEAR     86  64  48 NW3       30.04F
READING        MOSUNNY   88  63  43 N5        30.01F
LANCASTER      SUNNY     88  60  38 VRB3      30.03F
COATESVILLE    CLEAR     88  61  40 W8        30.04F
POTTSTOWN      SUNNY     87  64  46 N6        30.03F
BLUE BELL      SUNNY     88  68  51 NE3       30.01F
DOYLESTOWN     SUNNY     85  62  46 CALM      30.02F
WILLOW GROVE   NOT AVBL
NORTH PHILA    SUNNY     91  60  35 VRB6      30.02F
PHILADELPHIA   MOSUNNY   93  59  31 VRB5      29.99F
$$



USA.gov is the U.S. government's official web portal to all federal, state and local government web resources and services.